Kankakee, IL

3:37 PM CDT on October 16, 2019 (GMT -0500)
Greater Kankakee

Weather History for KIKK - September, 2019

Change the Weather History Date:

Tuesday, September 17, 2019

  Actual Average Record
Temperature  
Mean Temperature 72 °F -  
Max Temperature 80 °F 74 °F 92 °F (2018)
Min Temperature 63 °F 52 °F 38 °F (1984)
Cooling Degree Days 6    
Growing Degree Days 22 (Base 50)    
Moisture  
Dew Point 63 °F    
Average Humidity 83    
Maximum Humidity 98    
Minimum Humidity 59    
Precipitation  
Precipitation 0.01 in - - ()
Sea Level Pressure  
Sea Level Pressure 30.15 in    
Wind  
Wind Speed 6 mph (East)    
Max Wind Speed 10 mph    
Max Gust Speed -    
Visibility 9 miles    
Events      
Averages and records for this station are not official NWS values.
T = Trace of Precipitation, MM = Missing Value Source: NWS Daily Summary

Daily Weather History Graph

Daily Weather History Graph

Search for Another Location

Airport or City:

Astronomy

Sep. 17, 2019 Rise Set
Actual Time 6:33 AM CDT 6:57 PM CDT
Civil Twilight 6:06 AM CDT 7:25 PM CDT
Nautical Twilight 5:33 AM CDT 7:57 PM CDT
Astronomical Twilight 5:00 AM CDT 8:30 PM CDT
Moon 8:58 PM CDT (9/17) 9:39 AM CDT (9/17)
Length of Visible Light 13h 18m
Length of Day
12h 23m
Waning Gibbous, 89% of the Moon is Illuminated
Sep 17
Waning Gibbous
Sep 21
Last Quarter
Sep 28
New
Oct 5
First Quarter
Oct 13
Full

Hourly Weather History & Observations

Time (CDT) Temp. Heat Index Dew Point Humidity Pressure Visibility Wind Dir Wind Speed Gust Speed Precip Events Conditions
12:15 AM 65.5 °F - 64.8 °F 98% 30.13 in 10.0 mi ENE 8.1 mph - N/A   Overcast
12:35 AM 65.5 °F - 64.8 °F 98% 30.13 in 10.0 mi ENE 6.9 mph - N/A   Overcast
12:55 AM 65.3 °F - 64.4 °F 97% 30.14 in 10.0 mi ENE 6.9 mph - N/A   Overcast
1:15 AM 64.8 °F - 64.2 °F 98% 30.14 in 10.0 mi ENE 5.8 mph - N/A   Overcast
1:35 AM 64.8 °F - 64.2 °F 98% 30.14 in 10.0 mi ENE 4.6 mph - N/A   Overcast
2:15 AM 64.4 °F - 63.7 °F 98% 30.14 in 10.0 mi ENE 5.8 mph - N/A   Overcast
2:30 AM 64.4 °F - 63.7 °F 98% 30.15 in 10.0 mi NE 3.5 mph - N/A   Overcast
2:55 AM 64.4 °F - 63.7 °F 98% 30.14 in 10.0 mi NE 6.9 mph - N/A   Overcast
3:15 AM 64.4 °F - 63.5 °F 97% 30.14 in 10.0 mi ENE 5.8 mph - N/A   Overcast
3:35 AM 63.9 °F - 63.1 °F 97% 30.14 in 10.0 mi ENE 6.9 mph - N/A   Overcast
3:55 AM 64.0 °F - 63.5 °F 98% 30.15 in 7.0 mi ENE 4.6 mph - N/A   Overcast
4:15 AM 64.0 °F - 63.5 °F 98% 30.15 in 7.0 mi NE 5.8 mph - N/A   Overcast
4:35 AM 63.5 °F - 63.0 °F 98% 30.15 in 10.0 mi ENE 9.2 mph - N/A   Overcast
4:55 AM 63.7 °F - 63.0 °F 97% 30.15 in 10.0 mi East 4.6 mph - N/A   Overcast
5:15 AM 63.9 °F - 63.1 °F 97% 30.16 in 10.0 mi ENE 8.1 mph - N/A   Overcast
5:35 AM 63.7 °F - 63.0 °F 97% 30.16 in 10.0 mi ENE 5.8 mph - N/A   Overcast
5:55 AM 63.7 °F - 63.0 °F 97% 30.17 in 7.0 mi ENE 5.8 mph - N/A   Overcast
6:15 AM 63.7 °F - 63.0 °F 97% 30.17 in 7.0 mi East 5.8 mph - N/A   Overcast
6:35 AM 63.5 °F - 62.8 °F 97% 30.17 in 5.0 mi East 8.1 mph - N/A   Overcast
6:55 AM 63.5 °F - 62.8 °F 97% 30.17 in 4.0 mi East 5.8 mph - N/A   Overcast
7:15 AM 63.7 °F - 63.0 °F 97% 30.18 in 4.0 mi East 3.5 mph - N/A   Overcast
7:35 AM 63.9 °F - 63.1 °F 97% 30.18 in 3.0 mi East 5.8 mph - N/A   Overcast
7:55 AM 64.0 °F - 63.3 °F 97% 30.18 in 3.0 mi East 6.9 mph - N/A   Overcast
8:15 AM 64.4 °F - 63.7 °F 98% 30.19 in 5.0 mi East 5.8 mph - N/A   Overcast
8:35 AM 65.3 °F - 64.6 °F 98% 30.19 in 10.0 mi East 5.8 mph - N/A   Overcast
8:55 AM 66.0 °F - 64.9 °F 96% 30.19 in 10.0 mi East 5.8 mph - 0.01 in   Overcast
9:15 AM 66.2 °F - 65.1 °F 96% 30.19 in 10.0 mi East 8.1 mph - N/A   Overcast
9:35 AM 66.9 °F - 65.3 °F 95% 30.19 in 10.0 mi East 8.1 mph - N/A   Overcast
10:15 AM 68.4 °F - 65.7 °F 91% 30.20 in 10.0 mi East 8.1 mph - N/A   Overcast
10:35 AM 70.2 °F - 65.7 °F 86% 30.19 in 10.0 mi SE 5.8 mph - N/A   Overcast
10:55 AM 72.5 °F - 66.2 °F 81% 30.19 in 10.0 mi ESE 3.5 mph - N/A   Mostly Cloudy
11:15 AM 73.6 °F - 66.4 °F 78% 30.19 in 10.0 mi Calm Calm - N/A   Scattered Clouds
11:35 AM 74.1 °F - 65.8 °F 75% 30.18 in 10.0 mi NE 3.5 mph - N/A   Scattered Clouds
11:55 AM 75.6 °F - 66.2 °F 73% 30.17 in 10.0 mi East 8.1 mph - N/A   Scattered Clouds
12:15 PM 76.3 °F - 65.1 °F 68% 30.17 in 10.0 mi East 5.8 mph - N/A   Scattered Clouds
12:35 PM 77.9 °F - 65.3 °F 65% 30.17 in 10.0 mi East 4.6 mph - N/A   Mostly Cloudy
12:55 PM 79.3 °F - 65.1 °F 62% 30.17 in 10.0 mi East 5.8 mph - N/A   Mostly Cloudy
1:15 PM 77.2 °F - 64.6 °F 65% 30.16 in 10.0 mi East 5.8 mph - N/A   Mostly Cloudy
1:35 PM 78.8 °F - 64.6 °F 62% 30.15 in 10.0 mi ESE 6.9 mph - N/A   Scattered Clouds
1:55 PM 79.3 °F - 64.4 °F 60% 30.14 in 10.0 mi ESE 8.1 mph - N/A   Scattered Clouds
2:15 PM 80.4 °F 82.3 °F 65.3 °F 60% 30.14 in 10.0 mi ESE 5.8 mph - N/A   Scattered Clouds
2:35 PM 80.1 °F 81.9 °F 64.9 °F 60% 30.13 in 10.0 mi ESE 9.2 mph - N/A   Scattered Clouds
2:55 PM 80.6 °F 82.7 °F 66.0 °F 61% 30.13 in 10.0 mi East 6.9 mph - N/A   Scattered Clouds
3:15 PM 79.0 °F - 64.2 °F 60% 30.12 in 10.0 mi ESE 8.1 mph - N/A   Scattered Clouds
3:35 PM 79.7 °F - 65.3 °F 61% 30.12 in 10.0 mi East 8.1 mph - N/A   Clear
3:55 PM 79.7 °F - 64.4 °F 59% 30.12 in 10.0 mi East 9.2 mph - N/A   Clear
4:15 PM 79.7 °F - 64.8 °F 60% 30.12 in 10.0 mi ESE 8.1 mph - N/A   Clear
4:35 PM 78.8 °F - 64.4 °F 61% 30.11 in 10.0 mi East 8.1 mph - N/A   Clear
4:55 PM 77.9 °F - 63.9 °F 62% 30.11 in 10.0 mi East 8.1 mph - N/A   Clear
5:15 PM 77.4 °F - 63.5 °F 62% 30.11 in 10.0 mi East 10.4 mph - N/A   Clear
5:35 PM 76.3 °F - 61.9 °F 61% 30.11 in 10.0 mi East 10.4 mph - N/A   Clear
5:55 PM 74.5 °F - 61.3 °F 63% 30.11 in 10.0 mi East 5.8 mph - N/A   Clear
6:15 PM 72.7 °F - 62.4 °F 70% 30.11 in 10.0 mi East 5.8 mph - N/A   Clear
6:35 PM 71.6 °F - 62.2 °F 72% 30.11 in 10.0 mi East 4.6 mph - N/A   Clear
6:55 PM 70.5 °F - 62.1 °F 74% 30.12 in 10.0 mi East 4.6 mph - N/A   Clear
7:15 PM 68.2 °F - 62.1 °F 81% 30.11 in 10.0 mi East 5.8 mph - N/A   Clear
7:35 PM 67.5 °F - 61.5 °F 81% 30.12 in 10.0 mi East 4.6 mph - N/A   Clear
7:55 PM 67.5 °F - 61.3 °F 81% 30.12 in 10.0 mi East 4.6 mph - N/A   Clear
8:15 PM 66.7 °F - 61.3 °F 83% 30.12 in 10.0 mi East 5.8 mph - N/A   Clear
8:35 PM 66.9 °F - 61.3 °F 82% 30.12 in 10.0 mi East 5.8 mph - N/A   Clear
8:55 PM 66.6 °F - 61.2 °F 83% 30.12 in 10.0 mi East 5.8 mph - N/A   Clear
9:15 PM 65.8 °F - 60.8 °F 84% 30.12 in 10.0 mi East 5.8 mph - N/A   Clear
9:35 PM 65.7 °F - 60.8 °F 84% 30.12 in 10.0 mi East 6.9 mph - N/A   Clear
9:55 PM 65.7 °F - 60.6 °F 84% 30.13 in 10.0 mi East 6.9 mph - N/A   Clear
10:15 PM 65.3 °F - 60.4 °F 84% 30.13 in 10.0 mi East 6.9 mph - N/A   Clear
10:35 PM 65.5 °F - 60.4 °F 84% 30.12 in 10.0 mi East 6.9 mph - N/A   Clear
10:55 PM 65.1 °F - 60.3 °F 84% 30.13 in 10.0 mi ESE 5.8 mph - N/A   Clear
11:15 PM 64.9 °F - 60.4 °F 85% 30.13 in 10.0 mi East 4.6 mph - N/A   Clear
11:35 PM 64.6 °F - 60.4 °F 86% 30.12 in 10.0 mi East 4.6 mph - N/A   Clear
11:55 PM 64.6 °F - 60.4 °F 86% 30.13 in 10.0 mi East 5.8 mph - N/A   Clear